Погода в Любашевке

Погода в Любашевке : погода сейчас, прогноз погоды и архив. Всё, что Вы хотите узнать о погоде в Любашевке!

Хотите узнать прогноз погоды в Любашевке? Тогда Вам сюда: Погода в Любашевке

Поиск расширенной информации на нашем сайте:

Другие новости

Новости СМИ2

Главная страница сайта

Новости сайта

02.10.2013

Напоминаем, что на нашем новом сайте вы можете получить высокодетализированные прогнозы погоды по пунктам России, СНГ и мира (включающие важные для авиации метеовеличины, такие как направление и скорость ветра, видимость, явления погоды, количество и форма облачности, нижняя и верхняя граница облачности), а также ознакомиться с разнообразными материалами по авиационной метеорологии и подборкой полезных ссылок на эту тему.

Сайт Метеоцентр.Азия посвящён разработке технологий оптимизации авиаметеорологического обслуживания, включая проектирование и перспективное создание нескольких автоматизированных авиаметеорологических систем:
- система выпуска высокодетальных прогностических карт явлений погоды для нижнего воздушного пространства по России и ближнему зарубежью;
- система верификации прогнозов TAF (выпускаемых синоптиками официальных АМСГ РФ и ближнего зарубежья) и AUTOTAF (выпускаемых сайтом Метеоцентр.Азия) - выявление ошибок, онлайн-сопоставление с фактической погодой METAR, автоматическое внесение коррективов в прогнозы при резком отклонении фактической погоды от прогноза, подсчёт оправдываемости прогнозов по элементам и в целом;
- система обработки, анализа и отображения авиаметеорологической информации для применения провайдерами метеорологической информации.


Погода в Любашевке - сегодня

Время (UTC), дата Ветер
(°,м/с) 
Видим.   Явления Облачность Т
(°С)
Тd
(°С)
f(%) Тe
(°С)
Pmin
(гПа)
dP
(гПа)
Po
(мм)
O2
(г/м3)
Тmin Tmax R s Состояние
почвы
18 19.01.17 360 (С) 4000 м  дымка  10/10 300 м 
[St]
-7.1 -7.6 96 -10  1038.9  -0.6  761  316    -6.5       
21 19.01.17 290 (З) 4000 м  дымка  10/10 300 м 
[St]
-7 -7.5 96 -7  1038.4  -0.5  761  315           
00 20.01.17 290 (З) 4000 м  дымка  10/10 300 м 
[St]
-7.9 -8.5 95 -9  1037.6  -0.8  760  316           
03 20.01.17 260 (З) 1000 м  дымка  10/10 300 м 
[St]
-9.5 -9.8 98 -11  1036.2  -1.6  759  318           
06 20.01.17 270 (З) 5000 м  дымка{туман}  1/0 верхняя 
[Ci fib]
-10.9 -11.6 95 -11  1035.4  -0.9  758  319  -10.9      мокрый или
старый снег
50-90% 
09 20.01.17 270 (З) 8000 м  дымка  ясно 
-6.9 -8.1 91 -10  1034.3  -0.7  758  314           
12 20.01.17 260 (З) 20000 м    3/0 средняя 
[Ac trans]
-2.8 -9 62 -5  1031.9  -2  756  309           
15 20.01.17 270 (З) 5000 м  слаб. снег  10/10 300 м 
[Frnb|Ns]
-4.9 -7.3 83 -8  1030.4  -1.6  755  311           
18 20.01.17 300 (СЗ) 4000 м  дымка{снег}  10/10 300 м 
[St]
-6.5 -7.3 94 -9  1030.4  -0.1  755  312    -2.8  0.0     
21 20.01.17 270 (З) 4000 м  дымка  10/10 300 м 
[St]
-5.2 -6.2 93 -7  1029.6  -0.7  755  311           
00 21.01.17 280 (З) 4000 м  дымка  10/10 300 м 
[St]
-4.3 -4.9 96 -7  1028.3  -1.2  754  309           
03 21.01.17 290 (З) 4000 м  дымка  10/10 300 м 
[St]
-3.2 -3.9 95 -4  1026.9  -1.3  753  307           
06 21.01.17 290 (З) 8000 м  дымка  10/10 600 м 
[Sc]
-2.4 -3 96 -4  1026.4  -0.4  752  306  -6.5      мокрый или
старый снег
50-90% 
09 21.01.17 300 (СЗ) 7000 м  дымка  10/10 300 м 
[St]
-0.8 -1.5 95 -3  1026.8  0.5  753  304           
12 21.01.17 300 (СЗ) 8000 м  дымка  10/10 300 м 
[St]
-0.1 -1.3 92 -2  1025.2  -1.5  752  303           
15 21.01.17 310 (СЗ) 5000 м  дымка  10/10 300 м 
[St]
+0 -0.8 94 -1  1025.8  0.6  752  303           
18 21.01.17 330 (СЗ) 4000 м  дымка  10/10 300 м 
[St]
+0.4 -1 90 -1  1027.4  1.6  753  303    +0.5       
21 21.01.17 310 (СЗ) 4000 м  слаб. снег  10/10 300 м 
[Frnb|Ns]
+0.3 -0.3 96 -1  1029.2  1.8  755  304           
00 22.01.17 320 (СЗ) 4000 м  дымка{снег}  10/10 300 м 
[St]
+0.4 -0.5 94 -1  1030.3  1.1  755  304      0.0     
03 22.01.17 350 (С) 4000 м  дымка{снег}  10/10 300 м 
[Sc]
+0.1 -0.8 94 -2  1031.9  1.5  757  305           
06 22.01.17 010 (С) 20000 м  {снег}  10/0 средняя 
[Sc|Ac und]
-0.3 -3.7 78 -2  1033.5  1.5  758  306  -0.3    0.0  мокрый или
старый снег
50-90% 
09 22.01.17 040 (СВ) 20000 м    9/9 600 м 
[Sc diur, vesp]
+0.5 -5.3 65 1035  1.6  759  306           
12 22.01.17 330 (СЗ) 20000 м    4/4 1000 м 
[Cu med, cong]
+1.5 -5.1 61 +1  1034.6  -0.4  759  305           
15 22.01.17 280 (З) 20000 м    3/0 средняя 
[Ac trans]
-0.5 -5 72 1034.6  -0.1  758  307           
18 22.01.17 240 (ЮЗ) 20000 м    6/0 средняя 
[Ac trans]
-3 -5.4 83 -4  1034.7  -0.1  758  310    +2.2       
Время (UTC), дата Ветер
(°,м/с) 
Видим.   Явления Облачность Т
(°С)
Тd
(°С)
f(%) Тe
(°С)
Pmin
(гПа)
dP
(гПа)
Po
(мм)
O2
(г/м3)
Тmin Tmax R s Состояние
почвы

Для получения пояснительной информации подведите курсор к названию столбца.

ПОГОДА в Любашевке - архив

Всё, что Вы хотите узнать о погоде в Любашевке - удобно и подробно!

Выберите нужную дату (начиная с 1 января 2015* года) и нажмите кнопку "Найти".
Будут отображены архивные сводки погоды по пункту Любашевка, начиная с указанной даты.


Отображать данные в формате CSV (для использования в таблицах Excel)


Внимание! Наш архив погоды предназначен исключительно для личного некоммерческого использования в познавательных целях. Если Вам необходимы официальные справки о состоянии погоды (для производственных, юридических, коммерческих и т.п. целей), обращайтесь в органы Росгидромета.

*Примечание: данная дата относится к архиву по метеостанциям СССР (Россия, СНГ, Балтия).
Архив по метеостанциям Зарубежной Европы и Азии (кроме Китая) хранится 10 дней, по другим регионам земного шара (Китай, Африка, Америка, Австралия, Океания) - 1 день.

Любашевка - район местоположения метеостанции


Название, широта, долгота, высота метеостанции:
Любашевка 47.9°ш. 30.3°д. 183 м над ур. моря [Украина]

Дополнительная информация

В oтличие oт бoльшинства пoгoдных сайтoв мы публикуем пoдрoбную метеoинфoрмацию в детальнoм прoфессиoнальнoм фoрмате.

Характеристики температуры и влажнoсти вoздуха измеряются на высoте 2 м в тени вдали oт зданий и деревьев.
Скoрoсть ветра измеряется на высoте 10 м (на урoвне рoста челoвека скoрoсть ветра ниже в 1.5-2 раза). Если метеoстанция нахoдится в гoрoде или в лесу, тo скoрoсть ветра занижена на 2-4 м/с пo сравнению с oткрытым местoм. Скoрoсть ветра над акватoриями крупных рек и oзёр, а также на вершинах хoлмoв на 2-5 м/с выше, чем в oбычных услoвиях.
Атмoсфернoе давление в разных тoчках местнoсти мoжет значительнo oтличаться oт давления на метеoстанции, в зависимoсти oт услoвий рельефа (при пoдъёме на 10 м давление пoнижается примернo на 1 мм рт.ст.).